Weather History for KCLM - August, 2014

Change the Weather History Date:

Monday, August 25, 2014

  Actual Average Record
Temperature  
Mean Temperature 63 °F -  
Max Temperature 75 °F 67 °F 84 °F (1996)
Min Temperature 51 °F 50 °F 44 °F (1992)
Degree Days  
Heating Degree Days 2    
Growing Degree Days 13 (Base 50)    
Moisture  
Dew Point 52 °F    
Average Humidity 69    
Maximum Humidity 89    
Minimum Humidity 48    
Precipitation  
Precipitation 0.00 in - - ()
Sea Level Pressure  
Sea Level Pressure 30.01 in    
Wind  
Wind Speed 3 mph (North)    
Max Wind Speed 8 mph    
Max Gust Speed -    
Visibility 10 miles    
Events      
Averages and records for this station are not official NWS values.
T = Trace of Precipitation, MM = Missing Value Source: NWS Daily Summary

Daily Weather History Graph

Daily Weather History Graph

Search for Another Location

Airport or City:

Trip Planner

Search our weather history database for the weather conditions in past years. The results will help you decide how hot, cold, wet, or windy it might be!

Date:

Astronomy

Aug. 25, 2014 Rise Set
Actual Time 6:22 AM PDT 8:08 PM PDT
Civil Twilight 5:49 AM PDT 8:41 PM PDT
Nautical Twilight 5:08 AM PDT 9:21 PM PDT
Astronomical Twilight 4:24 AM PDT 10:06 PM PDT
Moon 6:37 AM PDT (8/25) 7:55 PM PDT (8/25)
Length of Visible Light 14h 52m
Length of Day
13h 46m
New Moon, 0% of the Moon is Illuminated
Aug 25
New Moon
Sep 2
First Quarter
Sep 8
Full
Sep 15
Last Quarter
Sep 23
New

Hourly Weather History & Observations

Time (PDT) Temp. Dew Point Humidity Pressure Visibility Wind Dir Wind Speed Gust Speed Precip Events Conditions
12:53 AM 62.1 °F 48.9 °F 62% 29.99 in 10.0 mi WNW 4.6 mph - N/A   Clear
1:53 AM 53.6 °F 48.2 °F 82% 29.99 in 10.0 mi Calm Calm - N/A   Clear
2:53 AM 53.1 °F 48.0 °F 83% 30.00 in 10.0 mi Calm Calm - N/A   Clear
3:53 AM 52.0 °F 48.9 °F 89% 30.01 in 10.0 mi SE 3.5 mph - N/A   Clear
4:53 AM 51.8 °F 48.2 °F 88% 30.00 in 10.0 mi Calm Calm - N/A   Clear
5:53 AM 53.1 °F 48.0 °F 83% 30.01 in 10.0 mi Calm Calm - N/A   Clear
6:53 AM 51.8 °F 48.2 °F 88% 30.03 in 10.0 mi South 3.5 mph - N/A   Clear
7:53 AM 62.1 °F 54.0 °F 75% 30.04 in 10.0 mi Calm Calm - N/A   Clear
8:53 AM 66.9 °F 54.0 °F 63% 30.03 in 10.0 mi Calm Calm - N/A   Clear
9:53 AM 73.0 °F 52.0 °F 48% 30.03 in 10.0 mi Variable 5.8 mph - N/A   Clear
10:53 AM 72.0 °F 53.1 °F 51% 30.04 in 10.0 mi NE 8.1 mph - N/A   Clear
11:53 AM 72.0 °F 54.0 °F 53% 30.04 in 10.0 mi East 6.9 mph - N/A   Clear
12:53 PM 75.0 °F 55.0 °F 50% 30.03 in 10.0 mi ENE 6.9 mph - N/A   Clear
1:53 PM 72.0 °F 55.9 °F 57% 30.01 in 10.0 mi NNE 8.1 mph - N/A   Clear
2:53 PM 75.0 °F 55.0 °F 50% 30.01 in 10.0 mi East 5.8 mph - N/A   Clear
3:53 PM 70.0 °F 54.0 °F 57% 30.00 in 10.0 mi Variable 4.6 mph - N/A   Clear
4:53 PM 66.9 °F 54.0 °F 63% 30.00 in 10.0 mi North 3.5 mph - N/A   Mostly Cloudy
5:53 PM 66.0 °F 53.1 °F 63% 29.99 in 10.0 mi NW 8.1 mph - N/A   Partly Cloudy
6:53 PM 66.2 °F 53.6 °F 64% 29.98 in 10.0 mi West 3.5 mph - N/A   Clear
7:53 PM 62.6 °F 53.6 °F 72% 29.99 in 10.0 mi NW 3.5 mph - N/A   Clear
8:53 PM 59.0 °F 53.1 °F 81% 30.01 in 10.0 mi Calm Calm - N/A   Clear
9:53 PM 57.0 °F 52.0 °F 83% 30.01 in 10.0 mi West 6.9 mph - N/A   Clear
10:53 PM 57.9 °F 53.1 °F 84% 30.01 in 10.0 mi Calm Calm - N/A   Clear
11:53 PM 59.0 °F 52.0 °F 78% 30.01 in 10.0 mi NNW 4.6 mph - N/A   Clear